Location: ????
(33.1659°N, 35.6604°E)
Time: 16:54:25
(UTC+00:00)

Cosmos 2219 - Pass Details

Date: 20 September 2019
Orbit: 834 x 860 km, 71.1° (Epoch: 15 October)

Event Time Altitude Azimuth Distance (km) Brightness Sun altitude
Rises 16:48:32 0° 205° (SSW) 3,415 6.5 -15.6°
Reaches altitude 10° 16:50:59 10° 207° (SSW) 2,484 5.8 -16.1°
Maximum altitude 16:56:41 71° 291° (WNW) 905 3.5 -17.3°
Drops below altitude 10° 17:02:25 10° 16° (NNE) 2,497 5.6 -18.4°
Sets 17:04:54 0° 18° (NNE) 3,436 6.3 -18.9°
